Zurück zum Katalog

STARLINK-3781

AktivKommunikationVLEO
NORAD 52272·PAYLOAD·🇺🇸 United States

Gestartet Apr 21, 2022 von Cape Canaveral Space Force Station

Loading…

Nächste Überflüge (nächste 24 Stunden)

TLE

AktuellSource: CelesTrak SupGP

Epoche: Sep 15, 2026, 01:28 UTC

1 52272C 22041M   26258.06159722  .00043169  00000+0  13884-2 0  2588
2 52272  53.1586 326.2420 0001046  82.7789  36.8672 15.31676141    17

Verfolge STARLINK-3781 in Echtzeit mit AllMySat

Download on the App Store